Location: Proctor
(47.8934°N, 114.3048°W)
Time: 16:51:21
(UTC+00:00)

Courier 1B Rocket - Pass Details

Date: 22 June 2024
Orbit: 920 x 1201 km, 28.2° (Epoch: 16 July)

Event Time Altitude Azimuth Distance (km) Brightness Sun altitude
Rises 12:51:12 0° 239° (WSW) 3,789 7.4 9.6°
Reaches altitude 10° 12:55:22 10° 215° (SW) 2,900 7.0 10.2°
Maximum altitude 12:58:48 14° 186° (S) 2,653 7.1 10.8°
Drops below altitude 10° 13:02:20 10° 157° (SSE) 2,998 7.6 11.3°
Sets 13:06:47 0° 134° (SE) 4,012 8.5 12.0°
